Lid_Strength_Index
16 17 16 15 16 17 17 15 17 16 18 17 17 16 15 14 14 14 14 14 13 13 13 13 14 14 14 15 15 14 15 15 14 14 14 14 15 15 14 15 14 14 14 14
19 16 16 17 15 15 16 16 18 19 18 16 16 15 15 14 14 14 13 13 13 13 13 13 13 14 14 14 15 15 14 14 15 15 15 15 15 15 15 15 14 14 14 14
19 18 17 20 18 16 15 15 15 17 15 14 15 15 15 14 14 14 13 13 12 12 12 12 13 13 14 14 15 14 15 15 15 15 15 15 15 15 15 15 15 15 14 14
19 20 23 17 17 15 15 14 13 14 15 14 13 12 14 14 14 14 13 13 12 12 12 12 13 13 13 14 15 15 15 15 15 15 15 15 15 15 15 15 15 14 14 14
19 25 19 17 17 16 17 16 14 15 13 13 14 14 14 13 13 12 13 12 11 11 11 12 12 13 13 14 15 15 15 14 14 15 15 15 15 15 14 14 15 14 14 14
20 23 24 18 16 15 15 19 16 14 14 14 15 16 13 12 12 12 12 12 12 12 12 12 13 13 13 14 14 14 14 14 14 14 14 14 14 14 15 14 13 14 14 14
17 19 19 16 15 14 19 17 16 17 16 15 15 14 13 13 13 13 13 13 13 13 12 13 14 14 13 13 13 13 14 14 14 14 13 13 14 15 15 14 14 14 15 15
16 18 19 15 15 16 14 15 17 16 16 15 15 14 14 14 14 14 14 14 14 14 15 18 15 13 14 13 15 15 14 15 14 14 14 14 13 14 15 15 15 15 16 16
14 15 13 13 14 13 14 15 16 16 16 14 14 15 14 14 15 15 15 16 17 16 18 19 18 15 14 15 15 15 14 14 14 15 14 14 14 15 16 16 15 15 16 16
14 13 13 11 12 13 13 13 14 15 14 14 14 15 15 15 16 16 19 19 19 17 17 19 19 17 17 16 17 15 15 16 17 17 17 17 16 16 16 16 16 16 17 16
14 13 13 12 12 12 11 12 14 15 15 14 15 15 16 16 17 18 19 20 18 17 19 20 20 20 20 19 17 17 17 19 18 18 18 19 18 17 16 17 16 16 15 15
14 11 11 11 12 12 12 11 12 14 15 17 16 15 17 18 19 20 20 20 19 20 20 21 20 21 21 21 19 18 19 19 20 19 20 19 19 19 16 14 13 12 12 14
10 10 11 13 14 14 13 14 15 16 16 16 18 18 18 19 22 21 22 20 21 22 22 21 21 22 24 23 22 20 19 21 21 21 21 22 22 21 20 18 14 12 11 11
10 10 11 13 11 14 15 18 18 19 19 19 19 21 19 20 23 22 22 23 24 23 23 22 23 25 27 27 23 23 23 24 23 24 24 25 24 23 23 21 20 19 15 11
10 9 8 12 14 16 18 17 17 18 19 18 20 18 19 19 21 24 27 25 24 24 25 24 24 26 28 29 25 26 24 26 27 28 27 26 25 25 24 23 22 21 20 16
11 11 15 12 12 16 17 19 16 16 20 21 18 18 18 19 23 25 27 27 22 23 25 24 25 28 30 31 29 29 30 27 29 28 28 27 26 26 25 23 23 23 22 20
13 14 15 15 13 13 14 14 14 15 18 19 18 20 20 22 24 25 28 27 25 26 27 25 27 31 33 31 29 31 31 31 29 30 30 30 29 27 25 26 24 23 21 19
7 7 9 12 11 13 17 16 17 17 18 18 20 20 21 20 19 22 25 25 25 26 28 30 32 32 31 31 32 32 31 29 31 30 30 28 28 27 25 22 23 23 20 16
20 16 18 16 14 13 15 17 18 18 19 21 21 20 20 21 22 24 25 22 22 23 27 30 23 31 31 30 32 31 28 29 31 31 30 28 27 25 18 17 17 19 19 19
23 23 21 21 21 18 18 19 19 19 18 19 19 20 22 23 23 24 23 25 27 29 34 33 33 33 34 34 29 30 30 31 31 31 27 28 29 29 27 26 26 25 25 24
24 23 19 19 21 18 19 17 17 19 20 19 18 19 21 25 25 24 24 24 27 30 33 33 34 33 34 33 33 34 34 31 30 31 31 31 31 30 28 30 28 27 25 25
28 25 23 22 22 24 23 22 20 20 20 21 22 23 23 26 27 28 32 27 30 31 32 34 34 31 31 29 34 33 31 32 33 33 32 32 31 30 30 29 28 27 26 26
26 25 24 25 24 25 24 22 22 21 22 22 23 24 24 26 27 25 25 30 33 32 33 33 30 26 28 33 33 33 33 33 33 33 33 33 32 32 31 30 28 28 28 28
22 21 22 22 22 22 24 27 25 25 26 27 29 28 27 27 28 31 32 32 32 33 33 31 28 26 31 33 33 33 34 35 34 35 34 32 34 34 34 33 31 30 29 28
24 24 24 24 25 26 26 26 26 26 26 28 29 31 32 33 30 32 35 35 30 33 33 29 25 28 33 35 35 35 35 36 35 36 35 35 36 36 35 34 33 31 30 29
27 26 27 26 26 27 27 25 27 28 28 30 33 34 34 35 35 35 34 33 32 31 33 33 33 33 34 34 35 34 33 33 33 34 34 35 36 34 33 32 31 30 29 29
31 32 30 30 32 33 32 31 29 32 34 33 33 37 36 35 33 31 31 31 32 33 33 34 33 32 34 34 33 33 34 34 32 34 36 36 35 36 33 32 32 31 29 29